Regional Weather Roundup
Issued by NWS

Home | Current Version | Previous Version | Graphics & Text | Print | Product List | Glossary On
Versions: 1 2 3 4 5 6 7 8 9 10 11 12 13 14 15 16 17 18 19 20 21 22 23 24 25 26 27 28 29 30 31 32 33 34 35 36 37 38 39 40 41 42 43 44 45 46 47 48 49 50
000
ASUS43 KDTX 081101
RWRMI
MICHIGAN HOURLY REGIONAL WEATHER ROUNDUP
NATIONAL WEATHER SERVICE DETROIT/PONTIAC MI
600 AM EST MON FEB 08 2016

NOTE: "FAIR" INDICATES FEW OR NO CLOUDS BELOW 12,000 FEET WITH NO
SIGNIFICANT WEATHER AND/OR OBSTRUCTION TO VISIBILITY.

MIZ047>049-052>055-059>063-066>070-074>076-081>083-081200-
SOUTHEAST LOWER MICHIGAN

CITY           SKY/WX    TMP DP  RH WIND       PRES   REMARKS
ADRIAN         MOCLDY    32  29  88 W5        29.63F WCI  27
ALMA           CLOUDY    32  31  97 SW6       29.61S WCI  26
ANN ARBOR      MOCLDY    31  30  96 CALM      29.61F
BAD AXE        CLOUDY    35  32  89 CALM      29.61F
CARO           CLOUDY    36  32  87 SW6       29.61S WCI  31
DETROIT CITY   CLOUDY    39  31  72 W3        29.62F
DETROIT        CLOUDY    37  31  78 W6        29.63F WCI  32
FLINT          CLOUDY    36  29  75 SW6       29.62S WCI  31
GROSSE ILE     CLOUDY    37  34  87 CALM      29.61F
HILLSDALE      CLOUDY    32  30  93 SW3       29.61S
HOWELL         CLOUDY    33  31  90 CALM      29.61S

CITY           SKY/WX    TMP DP  RH WIND       PRES   REMARKS
JACKSON        CLOUDY    31  27  85 W3        29.61F
LAMBERTVILLE   CLOUDY    34  31  88 CALM      29.64S
LANSING        MOCLDY    30  27  88 CALM      29.62S
LAPEER         CLOUDY    37  32  84 W5        29.61S WCI  33
MASON          CLOUDY    32  29  90 CALM      29.61F
MONROE         CLOUDY    35  31  85 W3        29.62S
MT. CLEMENS    LGT RAIN  37  35  92 S3        29.61S
PONTIAC        CLOUDY    35  29  78 W5        29.60S WCI  31
PORT HOPE        N/A     36  31  82 CALM      29.60S
PORT HURON     RAIN      36  34  93 S5        29.63R WCI  32
TRI CITIES     CLOUDY    35  30  82 SW6       29.62R WCI  30
MIDLAND        FAIR      29  28  96 CALM      29.61R FOG
TROY           CLOUDY    40  32  74 CALM      29.63S
SAGINAW HB     CLOUDY    34  32  93 SW6       29.61S WCI  29
$$
MIZ043>046-050>051-056>058-064>065-071>073-077>080-081200-
SOUTHWEST LOWER MICHIGAN

CITY           SKY/WX    TMP DP  RH WIND       PRES   REMARKS
BATTLE CREEK   PTCLDY    29  25  85 S6        29.62S WCI  23
BENTON HARBOR  MOCLDY    27  24  89 CALM      29.62S
BIG RAPIDS     MOCLDY    28  28  99 CALM      29.58R FOG
COLDWATER      PTCLDY    30  29  96 CALM      29.62S
FREMONT        FAIR      27  27 100 CALM      29.58F
HOLLAND        CLOUDY    30  28  92 SE3       29.61S
GRAND RAPIDS   CLEAR     27  24  89 S3        29.60F
IONIA          FAIR      30  29  94 S3        29.60S
KALAMAZOO      CLEAR     29  25  85 S5        29.62S WCI  24
LUDINGTON      CLOUDY    33  31  94 CALM      29.58S
MARSHALL       MOCLDY    29  27  91 CALM      29.61S
MOUNT PLEASANT PTCLDY    30  26  85 CALM      29.60R
MUSKEGON       MOCLDY    34  29  82 SW5       29.59F WCI  30
SOUTH HAVEN    CLOUDY    32  31  95 S5        29.61F WCI  28
$$
MIZ016>042-081200-
NORTHERN LOWER MICHIGAN

CITY           SKY/WX    TMP DP  RH WIND       PRES   REMARKS
ALPENA         PTCLDY    28  25  88 CALM      29.60S
BEAVER ISLAND  CLOUDY    35  34  96 S5        29.56S WCI  31
BELLAIRE       CLEAR     26  26  97 CALM      29.59S
CADILLAC       CLEAR     26  25  96 CALM      29.55S FOG
CHARLEVOIX     CLEAR     30  30  99 SE3       29.60R
FRANKFORT      CLOUDY    31  29  91 CALM      29.57S
GAYLORD        FOG       27  24  89 S5        29.56S VSB 1/4 WCI  22
GRAYLING       FOG       25  24  96 CALM      29.57F VSB 1/4
HARBOR SPRINGS CLEAR     29  28  96 CALM      29.57R
HOUGHTON LAKE  FOG       25  25 100 CALM      29.57F VSB 1/4
MANISTEE       CLOUDY    30  27  86 CALM      29.58S
OSCODA         CLOUDY    30  29  97 CALM      29.60S
PELLSTON       FOG       27  25  93 CALM      29.58R VSB 1/4
ROGERS CITY    PTCLDY    32  28  86 CALM      29.60S
TRAVERSE CITY  MOCLDY    34  29  82 S3        29.56S
$$
MIZ007>008-015-081200-
EASTERN UPPER MICHIGAN

CITY           SKY/WX    TMP DP  RH WIND       PRES   REMARKS
KINROSS        MOCLDY    32  32 100 SE5       29.57S WCI  27
MACKINAC ISLAN CLOUDY    33  30  90 SE3       29.57R
NEWBERRY       CLOUDY    32  32  99 SE5       29.55S FOG     WCI  28
S. S. MARIE    CLOUDY    34  31  88 E5        29.57S FOG     WCI  30
$$
MIZ004>006-011>014-085-081200-
CENTRAL UPPER MICHIGAN

CITY           SKY/WX    TMP DP  RH WIND       PRES   REMARKS
MANISTIQUE     CLOUDY    32  31  98 CALM      29.55S FOG
ESCANABA       CLOUDY    34  30  86 CALM      29.55S
MENOMINEE      CLOUDY    32  27  80 CALM      29.55S
SAWYER-GWINN   LGT SNOW  31  31 100 CALM      29.52S
$$
MIZ001>003-009>011-084-081200-
WESTERN UPPER MICHIGAN

CITY           SKY/WX    TMP DP  RH WIND       PRES   REMARKS
IRON MOUNTAIN  LGT SNOW  29  27  92 CALM      29.52R FOG
HOUGHTON       LGT SNOW  21  16  81 N20G26    29.59R WCI   6
COPPER HARBOR    N/A     25  22  88 NE18G26   29.61R WCI  11
IRONWOOD       CLOUDY    21  19  93 N8        29.63R WCI  12
$$

ABBREVIATIONS USED IN REMARKS
   TC - TEMPERATURE IN CELSIUS
  WCI - WIND CHILL INDEX
   HX - HEAT INDEX
  VSB - VISIBILITY




USA.gov is the U.S. government's official web portal to all federal, state and local government web resources and services.